FW2359 Weather Reports


Display with metric or nautical units.
time (UTC)temp
F
wind
direction
speed
MPH
gust
MPH
rain 1hr
in
rain 24hr
in
rain mn
in
humidity
%
barometer
mb
20260507103033 55 238 13.0 30.0 0.00 0.14 0.08 76 1018.1
20260507101531 55 238 15.0 31.0 0.00 0.14 0.08 76 1018.1
20260507100043 55 242 15.0 35.0 0.00 0.14 0.08 75 1018.0
20260507094530 56 244 16.0 32.0 0.00 0.14 0.08 74 1017.9
20260507093034 57 245 16.0 31.0 0.00 0.14 0.08 74 1018.0
20260507091531 57 247 15.0 27.0 0.00 0.14 0.08 74 1018.1
20260507090033 57 247 15.0 29.0 0.00 0.14 0.08 74 1018.3
20260507084530 57 250 14.0 28.0 0.00 0.14 0.08 75 1018.2
20260507083106 57 252 15.0 35.0 0.00 0.14 0.08 75 1018.0
20260507081536 57 252 20.0 45.0 0.02 0.14 0.08 74 1017.7
20260507080030 58 245 18.0 57.0 0.08 0.14 0.08 73 1017.5
20260507074529 58 245 19.0 31.0 0.08 0.14 0.08 73 1017.2
20260507073106 59 247 25.0 48.0 0.08 0.14 0.06 72 1017.0
20260507071532 59 244 28.0 53.0 0.06 0.12 0.00 72 1017.0
20260507070030 59 243 25.0 42.0 0.00 0.06 0.00 72 1017.2
20260507064607 59 245 24.0 44.0 0.00 0.06 0.06 73 1017.2
20260507063030 60 243 23.0 40.0 0.00 0.06 0.06 72 1017.4
20260507060032 61 245 23.0 39.0 0.00 0.06 0.06 69 1017.3
20260507054531 61 243 24.0 37.0 0.00 0.06 0.06 69 1017.2
20260507053030 61 245 20.0 37.0 0.00 0.06 0.06 69 1017.4
20260507051529 61 242 20.0 37.0 0.00 0.06 0.06 69 1017.5
20260507050031 62 240 20.0 36.0 0.00 0.06 0.06 69 1017.8
20260507044530 62 234 20.0 36.0 0.00 0.06 0.06 69 1018.1
20260507043030 62 236 20.0 32.0 0.00 0.06 0.06 68 1018.3
20260507041531 62 244 17.0 36.0 0.00 0.06 0.06 67 1018.3
20260507040040 62 246 16.0 24.0 0.00 0.06 0.06 66 1018.3
20260507034533 63 253 16.0 38.0 0.00 0.06 0.06 64 1018.3
20260507033029 63 255 13.0 24.0 0.00 0.06 0.06 60 1018.3
20260507031530 64 258 14.0 22.0 0.00 0.06 0.06 57 1018.2
20260507030034 65 259 14.0 24.0 0.00 0.06 0.06 55 1018.2
20260507024530 66 261 13.0 22.0 0.00 0.06 0.06 54 1018.2
20260507023146 67 262 11.0 22.0 0.00 0.06 0.06 53 1018.3
20260507020030 67 271 13.0 21.0 0.00 0.06 0.06 55 1018.0
20260507014528 66 258 12.0 20.0 0.00 0.06 0.06 55 1017.9
20260507013031 66 256 14.0 21.0 0.00 0.06 0.06 55 1017.8
20260507011529 67 262 13.0 25.0 0.00 0.06 0.06 54 1017.7
20260507004531 66 262 13.0 22.0 0.00 0.06 0.06 57 1017.8
20260507001532 67 264 14.0 26.0 0.00 0.06 0.06 55 1017.6
20260507000031 67 263 15.0 24.0 0.00 0.06 0.06 54 1017.5
20260506234532 68 258 18.0 27.0 0.00 0.06 0.06 53 1017.3
20260506233031 68 259 18.0 29.0 0.02 0.06 0.06 53 1017.1
20260506231530 69 255 21.0 35.0 0.04 0.06 0.06 50 1016.8
20260506230040 70 253 23.0 38.0 0.04 0.06 0.06 50 1016.7
20260506224531 70 254 26.0 37.0 0.04 0.06 0.04 50 1016.6
20260506221532 71 243 22.0 39.0 0.00 0.02 0.02 50 1016.6
20260506220029 71 238 18.0 36.0 0.00 0.02 0.02 51 1016.9
20260506214533 69 228 16.0 31.0 0.00 0.02 0.02 51 1017.3
20260506213031 69 242 18.0 31.0 0.00 0.02 0.02 51 1017.3
20260506211529 70 244 15.0 34.0 0.00 0.02 0.02 50 1017.4
20260506210148 71 253 9.0 25.0 0.00 0.02 0.02 51 1017.7
20260506204532 69 226 11.0 24.0 0.00 0.02 0.02 53 1018.1
20260506200029 68 255 17.0 28.0 0.00 0.02 0.02 55 1017.9
20260506193030 67 244 20.0 34.0 0.02 0.02 0.02 56 1017.6
20260506191532 67 243 21.0 34.0 0.02 0.02 0.02 57 1017.7
20260506190032 66 253 23.0 37.0 0.02 0.02 0.02 59 1017.3
20260506184647 66 252 25.0 40.0 0.02 0.02 0.00 59 1017.3
20260506183030 66 252 20.0 36.0 0.00 0.00 0.00 60 1017.6
20260506180030 65 250 14.0 27.0 0.00 0.00 0.00 62 1018.4
20260506174606 65 240 12.0 34.0 0.00 0.00 0.00 62 1018.5
20260506173108 64 237 14.0 28.0 0.00 0.00 0.00 63 1018.2
20260506171531 64 256 17.0 28.0 0.00 0.00 0.00 64 1017.9
20260506170028 63 257 18.0 33.0 0.00 0.00 0.00 66 1017.7
20260506164530 63 253 15.0 24.0 0.00 0.00 0.00 67 1017.8
20260506163031 63 242 17.0 28.0 0.00 0.00 0.00 67 1018.2
20260506161531 62 238 17.0 27.0 0.00 0.00 0.00 68 1018.6
20260506160029 62 236 16.0 26.0 0.00 0.00 0.00 69 1018.5
20260506154531 62 235 15.0 26.0 0.00 0.00 0.00 69 1018.5
20260506153029 62 247 16.0 28.0 0.00 0.00 0.00 69 1018.3
20260506151531 61 245 14.0 24.0 0.00 0.00 0.00 69 1018.2
20260506144531 60 248 15.0 25.0 0.00 0.00 0.00 70 1018.0
20260506143029 60 248 15.0 27.0 0.00 0.00 0.00 70 1017.9
20260506141530 60 241 13.0 27.0 0.00 0.00 0.00 70 1017.9
20260506140032 59 236 11.0 21.0 0.00 0.00 0.00 71 1017.9
20260506134533 59 240 13.0 29.0 0.00 0.00 0.00 71 1017.7
20260506131532 59 236 15.0 25.0 0.00 0.00 0.00 72 1017.6
20260506130107 59 237 16.0 30.0 0.00 0.00 0.00 72 1017.4
20260506124532 59 239 17.0 30.0 0.00 0.00 0.00 72 1017.3
20260506121604 59 234 16.0 31.0 0.00 0.00 0.00 72 1017.0
20260506120030 59 238 19.0 35.0 0.00 0.00 0.00 72 1017.0
20260506114529 59 232 17.0 34.0 0.00 0.00 0.00 72 1016.9
20260506113029 59 235 14.0 29.0 0.00 0.00 0.00 72 1016.8
20260506111532 59 235 12.0 25.0 0.00 0.00 0.00 72 1016.7
20260506110029 59 237 14.0 26.0 0.00 0.00 0.00 72 1016.5
20260506104635 0 0 0.0 0.0 0.00 0.00 0.00 100